Location: Byszew
(52.1813°N, 19.2693°E)
Time: 19:21:20
(UTC+00:00)

NOAA 18 - Pass Details

Date: 05 July 2022
Orbit: 839 x 860 km, 98.9° (Epoch: 17 August)

Event Time Altitude Azimuth Distance (km) Brightness Sun altitude
Exits shadow 21:49:52 - 220° (SW) 3,119 7.8 -14.0°
Reaches altitude 10° 21:52:14 10° 236° (SW) 2,488 7.4 -14.1°
Maximum altitude 21:55:35 16° 274° (W) 2,086 7.4 -14.2°
Drops below altitude 10° 21:58:59 10° 312° (NW) 2,506 8.5 -14.3°
Sets 22:02:22 0° 333° (NNW) 3,451 9.9 -14.4°
